COSMOS 252 DEB, 18431

Orbit data source: Space-Track

COSMOS 252 DEB, 18431 is space debris in LEO originally from a launch on Fri, 01 Nov 1968 UTC launched from the Tyuratam Missile And Space Complex (TTMTR). Debris objects in space refer to the collection of defunct objects orbiting the Earth. Examples of debris include non-operational satellites, rocket bodies, and fragments generated from explosions, collisions, or faulty payload assembly.

Loading next visibility...
Identifier
18431, 1968-097EJ
Orbit
LEO
Country
Flag of CISCIS
Related business
Manufacturer
Unknown
Mission
Spacecraft
Bus & Motor
Unknown
Mass
Unknown
Launch date (UTC)
1968-11-01 (58 years ago)
Launch vehicle
Unknown
Launch site
Tyuratam Missile And Space Complex (TTMTR)
Object type
Payload
Rocket body
Debris
Shape & HBR
Unknown shape, 0.1 m
Radar Cross Section
Medium (>0.1 m² and <1 m²)

Expand to show TLE details & history
Last TLE update: 1 day ago

TLE from 1 day ago
0 COSMOS 252 DEB
1 18431U 68097EJ  26174.22274339  .00000535  00000-0  21581-3 0  9992
2 18431  62.3494  65.4460 0856190 158.7986 205.0884 13.20407866449141
Epoch: 2026-06-23T05:20Z
TLE epoch observation values (Epoch: 2026-06-23T05:20:45.028Z)
Latitude
-0.00003°
Longitude
73.86097°
Altitude
1,780.117 km
Speed
6.711 km/s
True Right ascension
04h 21m 47s
True Declination
0° 00' 00"
Sunlit
Object was in daylight at epoch
Visualization orbit readout
Latitude
Unknown
Longitude
Unknown
Altitude
Unknown
Speed
Unknown
Apparent Right ascension
Unknown
Apparent Declination
Unknown
Sunlit
N/A
Visualization observer readout
Local Sidereal Time
16:56:57
Azimuth
Unknown
Elevation
Unknown
Doppler factor
Unknown
Orbital elements
Apogee altitude
1,829.427 km
Perigee altitude
534.823 km
Semi-major axis
7,560.262 km
Eccentricity
0.08562
Inclination
62.3494°
RAAN
65.446°
Arg. of periapsis
158.7986°
True anomaly
201.29973°
Mean anomaly
205.0884°
Eccentric anomaly
203.1591°
Mean motion
3.3017 °/min
Orbital period
109.03 mins
BSTAR
0.00021581

Documentation

Showing up to 5 results
|